Wausau, WI

12:02 AM CST on February 25, 2017 (GMT -0600)
Wausau Downtown

Weather History for KAUW - March, 2013

Change the Weather History Date:

Friday, March 15, 2013

  Actual Average Record
Temperature  
Mean Temperature 29 °F 29 °F  
Max Temperature 36 °F 39 °F 68 °F (2012)
Min Temperature 21 °F 20 °F -11 °F (1956)
Degree Days  
Heating Degree Days 36 36  
Month to date heating degree days 617 576  
Since 1 July heating degree days 6441 6712  
Cooling Degree Days 0 0  
Month to date cooling degree days 0 0  
Year to date cooling degree days 0 0  
Moisture  
Dew Point 24 °F    
Average Humidity 74    
Maximum Humidity 92    
Minimum Humidity 56    
Precipitation  
Precipitation 0.18 in 0.06 in 1.38 in (2016)
Month to date precipitation 1.25 0.76  
Year to date precipitation 4.40 2.70  
Snow  
Snow 2.10 in 0.40 in 6.00 in (1959)
Month to date snowfall 7.7 5.8  
Since 1 July snowfall 63.7 51.1  
Snow Depth 13.00 in    
Sea Level Pressure  
Sea Level Pressure 29.90 in    
Wind  
Wind Speed 6 mph (ENE)    
Max Wind Speed 18 mph    
Max Gust Speed 24 mph    
Visibility 4 miles    
Events Fog , Rain , Snow    
T = Trace of Precipitation, MM = Missing Value Source: NWS Daily Summary

Daily Weather History Graph

Daily Weather History Graph

Search for Another Location

Airport or City:

Trip Planner

Search our weather history database for the weather conditions in past years. The results will help you decide how hot, cold, wet, or windy it might be!

Date:

Astronomy

Mar. 15, 2013 Rise Set
Actual Time 7:10 AM CDT 7:04 PM CDT
Civil Twilight 6:41 AM CDT 7:34 PM CDT
Nautical Twilight 6:07 AM CDT 8:08 PM CDT
Astronomical Twilight 5:32 AM CDT 8:43 PM CDT
Moon 8:49 AM CDT (3/15) 11:31 PM CDT (3/15)
Length of Visible Light 12h 52m
Length of Day
11h 54m
Waxing Crescent, 15% of the Moon is Illuminated
Mar 15
Waxing Crescent
Mar 19
First Quarter
Mar 27
Full
Apr 2
Last Quarter
Apr 10
New

Hourly Weather History & Observations

Time (CDT) Temp. Windchill Dew Point Humidity Pressure Visibility Wind Dir Wind Speed Gust Speed Precip Events Conditions
12:54 AM 27.0 °F 21.6 °F 23.0 °F 85% 30.02 in 7.0 mi WNW 4.6 mph - N/A   Clear
2:54 AM 27.0 °F 19.5 °F 23.0 °F 85% 29.98 in 6.0 mi WNW 6.9 mph - N/A   Clear
3:21 AM 26.6 °F - 23.0 °F 86% 29.90 in 6.0 mi Calm Calm - N/A   Mostly Cloudy
3:45 AM 26.6 °F - 23.0 °F 86% 29.90 in 6.0 mi Calm Calm - N/A   Scattered Clouds
3:54 AM 26.1 °F - 23.0 °F 88% 29.95 in 6.0 mi Calm Calm - N/A   Mostly Cloudy
4:54 AM 27.0 °F - 23.0 °F 85% 29.94 in 5.0 mi Calm Calm - N/A   Overcast
5:54 AM 27.0 °F 21.6 °F 23.0 °F 85% 29.94 in 5.0 mi NW 4.6 mph - N/A   Mostly Cloudy
6:35 AM 26.6 °F 20.0 °F 23.0 °F 86% 29.89 in 5.0 mi WNW 5.8 mph - N/A   Overcast
6:54 AM 27.0 °F 20.5 °F 23.0 °F 85% 29.96 in 5.0 mi WNW 5.8 mph - N/A   Overcast
7:08 AM 26.6 °F 21.2 °F 24.8 °F 93% 29.90 in 1.8 mi NW 4.6 mph - 0.00 in Snow Light Snow
7:36 AM 26.6 °F 21.2 °F 24.8 °F 93% 29.91 in 0.8 mi NW 4.6 mph - 0.00 in Snow Light Snow
7:54 AM 27.0 °F 23.0 °F 24.1 °F 89% 29.97 in 0.5 mi NW 3.5 mph - 0.01 in Fog , Snow Light Snow
8:44 AM 26.6 °F 22.6 °F 24.8 °F 93% 29.90 in 1.0 mi NW 3.5 mph - 0.01 in Snow Light Snow
8:54 AM 28.0 °F 24.2 °F 25.0 °F 88% 29.96 in 1.0 mi NW 3.5 mph - 0.01 in Snow Light Snow
9:54 AM 30.9 °F 27.5 °F 27.0 °F 85% 29.94 in 1.8 mi NNW 3.5 mph - 0.00 in Snow Light Snow
10:03 AM 30.2 °F 26.7 °F 26.6 °F 86% 29.89 in 2.0 mi NNW 3.5 mph - 0.00 in   Overcast
10:15 AM 32.0 °F 27.5 °F 26.6 °F 80% 29.89 in 2.5 mi North 4.6 mph - 0.00 in   Haze
10:22 AM 33.8 °F - 28.4 °F 81% 29.89 in 3.0 mi Calm Calm - 0.00 in   Haze
10:54 AM 33.1 °F 26.1 °F 27.0 °F 78% 29.95 in 4.0 mi NE 8.1 mph - 0.00 in   Haze
11:03 AM 33.8 °F 28.6 °F 26.6 °F 75% 29.89 in 4.0 mi NNE 5.8 mph - N/A   Haze
11:54 AM 33.1 °F 26.9 °F 26.1 °F 75% 29.95 in 7.0 mi NNE 6.9 mph - N/A   Overcast
12:54 PM 34.0 °F 26.6 °F 23.0 °F 64% 29.95 in 10.0 mi NE 9.2 mph - N/A   Mostly Cloudy
1:54 PM 34.0 °F 27.2 °F 21.9 °F 61% 29.95 in 10.0 mi NNE 8.1 mph - N/A   Overcast
2:54 PM 36.0 °F 30.3 °F 21.0 °F 55% 29.91 in 10.0 mi NNE 6.9 mph - 0.00 in Rain Light Rain
3:54 PM 35.1 °F 32.2 °F 21.9 °F 59% 29.89 in 10.0 mi ENE 3.5 mph - 0.00 in   Overcast
4:54 PM 35.1 °F 31.0 °F 21.0 °F 57% 29.89 in 10.0 mi Variable 4.6 mph - N/A   Overcast
5:54 PM 33.1 °F 28.7 °F 28.0 °F 82% 29.88 in 7.0 mi SSE 4.6 mph - 0.00 in   Overcast
6:54 PM 32.0 °F 27.5 °F 28.9 °F 88% 29.88 in 7.0 mi South 4.6 mph - N/A   Overcast
7:46 PM 32.0 °F 27.5 °F 28.4 °F 87% 29.83 in 2.5 mi SSE 4.6 mph - 0.00 in Snow Light Snow
7:52 PM 30.2 °F 25.4 °F 28.4 °F 93% 29.83 in 1.8 mi SE 4.6 mph - 0.00 in Snow Light Snow
7:54 PM 30.9 °F 26.2 °F 28.9 °F 92% 29.88 in 1.5 mi SE 4.6 mph - 0.00 in Snow Light Snow
8:25 PM 30.2 °F 25.4 °F 30.2 °F 100% 29.83 in 1.0 mi SSE 4.6 mph - 0.02 in Snow Light Snow
8:54 PM 30.9 °F 27.5 °F 28.9 °F 92% 29.89 in 1.2 mi ESE 3.5 mph - 0.04 in Snow Light Snow
9:06 PM 30.2 °F 25.4 °F 28.4 °F 93% 29.83 in 1.2 mi ESE 4.6 mph - 0.00 in Snow Light Snow
9:19 PM 30.2 °F 20.8 °F 26.6 °F 86% 29.83 in 0.8 mi ESE 11.5 mph - 0.02 in Snow Light Snow
9:25 PM 28.4 °F 19.1 °F 26.6 °F 93% 29.83 in 1.0 mi ESE 10.4 mph - 0.02 in Snow Light Snow
9:45 PM 28.4 °F 16.6 °F 24.8 °F 86% 29.83 in 1.2 mi ESE 16.1 mph 20.7 mph 0.02 in Snow Light Snow
9:54 PM 27.0 °F 14.7 °F 24.1 °F 89% 29.89 in 1.5 mi ESE 16.1 mph 24.2 mph 0.02 in Snow Light Snow
10:01 PM 26.6 °F 13.4 °F 23.0 °F 86% 29.84 in 1.5 mi East 18.4 mph - 0.00 in Snow Light Snow
10:45 PM 24.8 °F 13.4 °F 19.4 °F 80% 29.86 in 2.0 mi East 12.7 mph - 0.00 in Snow Light Snow
10:52 PM 24.8 °F 14.0 °F 19.4 °F 80% 29.86 in 1.2 mi ESE 11.5 mph - 0.00 in Snow Light Snow
10:54 PM 24.1 °F 13.1 °F 19.9 °F 84% 29.92 in 1.2 mi ESE 11.5 mph - 0.00 in Snow Light Snow
11:31 PM 23.0 °F 10.1 °F 19.4 °F 86% 29.86 in 1.0 mi East 15.0 mph 23.0 mph 0.01 in Snow Light Snow
11:40 PM 21.2 °F 7.3 °F 19.4 °F 93% 29.86 in 1.2 mi East 16.1 mph 23.0 mph 0.01 in Snow Light Snow
11:54 PM 21.9 °F 8.7 °F 17.1 °F 82% 29.93 in 2.5 mi East 15.0 mph - 0.01 in Snow Light Snow